Location: Unspecified
(0.0000°N, 0.0000°E)
Time: 14:57:05
(UTC+00:00)

Altair - Pass Details

Date: 17 March 2026
Orbit: 1502 x 1682 km, 47.2° (Epoch: 18 April)

Event Time Altitude Azimuth Distance (km) Brightness Sun altitude
Rises 04:12:47 0° 345° (NNW) 4,637 9.9 -28.9°
Reaches altitude 10° 04:16:42 10° 360° (N) 3,675 9.5 -27.9°
Maximum altitude 04:23:34 23° 48° (NE) 2,839 9.3 -26.2°
Drops below altitude 10° 04:30:33 10° 97° (E) 3,776 10.6 -24.5°
Sets 04:34:35 0° 110° (ESE) 4,795 11.3 -23.5°
